STARLINK-32133, 60333

Orbit data source: Space-Track

STARLINK-32133, 60333 is a payload satellite owned by SpaceX/Seattle (US) in LEO that was launched on Fri, 02 Aug 2024 UTC via an FALCON 9 launch vehicle from the Air Force Eastern Test Range (AFETR). Payload-class satellites include a variety of spacecraft equipped with specific instruments for various scientific and technological missions. These include communications satellites like Starlink; space stations such as the ISS; scientific satellites like the Hubble; Earth observation satellites from companies like Planet Labs, Umbra, and HawkEye 360; GPS; miniature CubeSats for education and research; and military/defense satellites.

Loading next visibility...
Identifier
60333, 2024-136E
Orbit
LEO
Country
Flag of USUS
Related business
Manufacturer
SpaceX/Seattle
Mission
Operational Commercial Communications
Bus & Motor
STARLINK V2M, Unknown motor
Mass
730 kg wet, ~700 kg dry
Launch date (UTC)
2024-08-02 (1 year ago)
Launch vehicle
FALCON 9
Launch site
Air Force Eastern Test Range (AFETR)
Object type
Payload
Rocket body
Debris
Shape & HBR
Box + 2 Pan, 17.7 m
Radar Cross Section
33.884 m², Large (>1 m²)

Expand to show TLE details & history
Last TLE update: 1 day ago

TLE from 1 day ago
0 STARLINK-32133
1 60333U 24136E   25301.37777284  .00007075  00000-0  25088-3 0  9992
2 60333  53.1616 330.4872 0001685  95.1245 264.9948 15.30186618 69402
Epoch: 2025-10-28T09:03Z
TLE epoch observation values (Epoch: 2025-10-28T09:03:59.573Z)
Latitude
-0.00003°
Longitude
157.52283°
Altitude
476.256 km
Speed
7.629 km/s
True Right ascension
22h 01m 56s
True Declination
0° 00' 00"
Sunlit
Object was in full shadow at epoch
Visualization orbit readout
Latitude
Unknown
Longitude
Unknown
Altitude
Unknown
Speed
Unknown
Apparent Right ascension
Unknown
Apparent Declination
Unknown
Sunlit
N/A
Visualization observer readout
Local Sidereal Time
10:35:00
Azimuth
Unknown
Elevation
Unknown
Doppler factor
Unknown
Orbital elements
Apogee altitude
476.666 km
Perigee altitude
474.356 km
Semi-major axis
6,853.648 km
Eccentricity
0.00017
Inclination
53.1616°
RAAN
330.4872°
Arg. of periapsis
95.1245°
True anomaly
264.97557°
Mean anomaly
264.9948°
Eccentric anomaly
264.98518°
Mean motion
3.82526 °/min
Orbital period
94.11 mins
BSTAR
0.00025088
Loading maneuver chart data...
Computing Atmospheric mass density...
Loading historical data...
Loading historical data...
Loading historical data...
Loading historical data...
Loading historical data...
Loading historical data...
Loading historical data...

Documentation

Showing up to 5 results
|